Carlsbad, NM

10:33 AM MDT on May 20, 2018 (GMT -0600)
Cavern City

Weather History for KCNM - September, 2012

Change the Weather History Date:

Wednesday, September 26, 2012

  Actual Average Record
Temperature  
Mean Temperature 76 °F -  
Max Temperature 91 °F 84 °F 101 °F (1953)
Min Temperature 61 °F 54 °F 43 °F (2000)
Cooling Degree Days 10    
Growing Degree Days 26 (Base 50)    
Moisture  
Dew Point 43 °F    
Average Humidity 34    
Maximum Humidity 53    
Minimum Humidity 16    
Precipitation  
Precipitation 0.00 in - - ()
Sea Level Pressure  
Sea Level Pressure 29.84 in    
Wind  
Wind Speed 5 mph (ENE)    
Max Wind Speed 14 mph    
Max Gust Speed 20 mph    
Visibility 10 miles    
Events Rain    
Averages and records for this station are not official NWS values.
T = Trace of Precipitation, MM = Missing Value Source: NWS Daily Summary

Daily Weather History Graph

Daily Weather History Graph

Search for Another Location

Airport or City:

Astronomy

Sep. 26, 2012 Rise Set
Actual Time 6:48 AM MDT 6:47 PM MDT
Civil Twilight 6:23 AM MDT 7:12 PM MDT
Nautical Twilight 5:55 AM MDT 7:40 PM MDT
Astronomical Twilight 5:26 AM MDT 8:09 PM MDT
Moon 4:40 PM MDT (9/26) 3:26 AM MDT (9/26)
Length of Visible Light 12h 48m
Length of Day
11h 59m
Waxing Gibbous, 88% of the Moon is Illuminated
Sep 26
Waxing Gibbous
Sep 29
Full
Oct 8
Last Quarter
Oct 15
New
Oct 21
First Quarter

Hourly Weather History & Observations

Time (MDT) Temp. Dew Point Humidity Pressure Visibility Wind Dir Wind Speed Gust Speed Precip Events Conditions
12:53 AM 64.9 °F 36.0 °F 34% 29.75 in 10.0 mi ENE 3.5 mph - N/A   Clear
1:53 AM 66.2 °F 37.4 °F 35% 29.92 in 10.0 mi Calm Calm - N/A   Clear
2:53 AM 61.0 °F 35.1 °F 38% 29.76 in 10.0 mi SSW 4.6 mph - N/A   Clear
3:53 AM 64.0 °F 37.0 °F 37% 29.75 in 10.0 mi SSW 4.6 mph - N/A   Clear
4:53 AM 64.4 °F 42.8 °F 45% 29.92 in 10.0 mi SE 9.2 mph - N/A   Partly Cloudy
5:53 AM 63.0 °F 45.0 °F 52% 29.77 in 10.0 mi North 3.5 mph - N/A   Clear
6:53 AM 62.1 °F 44.1 °F 52% 29.80 in 10.0 mi Calm Calm - N/A   Clear
7:53 AM 64.9 °F 39.9 °F 40% 29.85 in 10.0 mi NW 4.6 mph - N/A   Clear
8:53 AM 68.0 °F 46.9 °F 47% 29.85 in 10.0 mi NW 3.5 mph - N/A   Clear
9:53 AM 73.0 °F 45.0 °F 37% 29.86 in 10.0 mi NW 4.6 mph - N/A   Clear
10:53 AM 75.9 °F 41.0 °F 29% 29.88 in 10.0 mi NNW 5.8 mph - N/A   Partly Cloudy
11:53 AM 78.1 °F 39.0 °F 25% 29.86 in 10.0 mi North 9.2 mph - N/A   Scattered Clouds
12:53 PM 81.0 °F 39.0 °F 22% 29.84 in 10.0 mi North 5.8 mph - N/A   Partly Cloudy
1:53 PM 84.0 °F 37.9 °F 19% 29.81 in 10.0 mi NNE 4.6 mph - N/A   Clear
2:53 PM 89.1 °F 37.9 °F 16% 29.79 in 10.0 mi Variable 4.6 mph - N/A   Clear
3:53 PM 89.6 °F 39.2 °F 17% 29.92 in 10.0 mi Variable 4.6 mph - N/A   Clear
4:53 PM 90.0 °F 39.9 °F 17% 29.75 in 10.0 mi SE 11.5 mph 19.6 mph N/A   Clear
5:53 PM 86.0 °F 39.9 °F 20% 29.78 in 10.0 mi SE 6.9 mph - N/A   Clear
6:53 PM 79.0 °F 51.1 °F 38% 29.81 in 10.0 mi NW 10.4 mph - 0.00 in Rain Light Rain
7:53 PM 80.1 °F 46.0 °F 30% 29.83 in 10.0 mi SE 8.1 mph - 0.00 in   Partly Cloudy
8:53 PM 78.1 °F 46.0 °F 32% 29.86 in 10.0 mi SSE 6.9 mph - N/A   Clear
9:53 PM 77.0 °F 46.9 °F 34% 29.86 in 10.0 mi ESE 6.9 mph - N/A   Clear
10:53 PM 73.4 °F 51.8 °F 47% 30.01 in 10.0 mi South 3.5 mph - N/A   Clear
11:53 PM 73.9 °F 55.9 °F 53% 29.85 in 10.0 mi SE 13.8 mph 19.6 mph 0.00 in   Mostly Cloudy